Louisville, KY

1:37 AM EDT on March 29, 2017 (GMT -0400)
Louisville International-Standiford

Weather History for KSDF - December, 2012

Change the Weather History Date:

Friday, December 7, 2012

  Actual Average Record
Temperature  
Mean Temperature 54 °F 40 °F  
Max Temperature 58 °F 48 °F 72 °F (1951)
Min Temperature 50 °F 32 °F 5 °F (1977)
Degree Days  
Heating Degree Days 11 25  
Month to date heating degree days 68 168  
Since 1 July heating degree days 922 903  
Cooling Degree Days 0 0  
Month to date cooling degree days 4 0  
Year to date cooling degree days 1952 1613  
Growing Degree Days 3 (Base 50)    
Moisture  
Dew Point 53 °F    
Average Humidity 95    
Maximum Humidity 100    
Minimum Humidity 89    
Precipitation  
Precipitation 1.80 in 0.12 in 1.80 in (2012)
Month to date precipitation 2.36 0.87  
Year to date precipitation 40.90 41.95  
Snow  
Snow 0.00 in 0.00 in 1.90 in (1950)
Month to date snowfall 0.0 0.3  
Since 1 July snowfall 0.0 0.5  
Snow Depth 0.00 in    
Sea Level Pressure  
Sea Level Pressure 29.92 in    
Wind  
Wind Speed 5 mph (South)    
Max Wind Speed 12 mph    
Max Gust Speed 14 mph    
Visibility 4 miles    
Events Rain    
T = Trace of Precipitation, MM = Missing Value Source: NWS Daily Summary

Daily Weather History Graph

Daily Weather History Graph

Search for Another Location

Airport or City:

Trip Planner

Search our weather history database for the weather conditions in past years. The results will help you decide how hot, cold, wet, or windy it might be!

Date:

Astronomy

Dec. 07, 2012 Rise Set
Actual Time 7:46 AM EST 5:22 PM EST
Civil Twilight 7:17 AM EST 5:52 PM EST
Nautical Twilight 6:44 AM EST 6:25 PM EST
Astronomical Twilight 6:12 AM EST 6:57 PM EST
Moon 1:09 AM EST (12/7) 1:14 PM EST (12/7)
Length of Visible Light 10h 35m
Length of Day
9h 36m
Last Quarter, 39% of the Moon is Illuminated
Dec 7
Last Quarter
Dec 13
New
Dec 20
First Quarter
Dec 28
Full
Jan 4
Last Quarter

Hourly Weather History & Observations

Time (EST) Temp. Dew Point Humidity Pressure Visibility Wind Dir Wind Speed Gust Speed Precip Events Conditions
12:31 AM 51.8 °F 48.2 °F 88% 29.98 in 8.0 mi Calm Calm - 0.00 in   Overcast
12:53 AM 51.8 °F 48.2 °F 88% 29.98 in 9.0 mi Calm Calm - 0.00 in   Overcast
12:56 AM 51.1 °F 48.9 °F 92% 29.98 in 9.0 mi Calm Calm - 0.00 in   Overcast
1:56 AM 51.1 °F 50.0 °F 96% 29.98 in 4.0 mi Calm Calm - 0.09 in Rain Rain
2:05 AM 51.8 °F 50.0 °F 94% 29.97 in 2.0 mi Calm Calm - 0.07 in Rain Heavy Rain
2:14 AM 51.8 °F 50.0 °F 94% 29.98 in 3.0 mi Calm Calm - 0.08 in Rain Rain
2:35 AM 51.8 °F 50.0 °F 94% 29.98 in 2.5 mi ESE 4.6 mph - 0.14 in Rain Heavy Rain
2:45 AM 51.8 °F 51.8 °F 100% 29.98 in 5.0 mi ESE 3.5 mph - 0.14 in Rain Light Rain
2:56 AM 51.1 °F 51.1 °F 100% 29.98 in 4.0 mi Calm Calm - 0.15 in Rain Light Rain
3:05 AM 51.8 °F 51.8 °F 100% 29.97 in 2.5 mi East 3.5 mph - 0.06 in Rain Rain
3:14 AM 51.8 °F 51.8 °F 100% 29.97 in 3.0 mi Calm Calm - 0.08 in Rain Rain
3:35 AM 51.8 °F 51.8 °F 100% 29.97 in 2.5 mi ESE 3.5 mph - 0.15 in Rain Rain
3:56 AM 53.1 °F 53.1 °F 100% 29.97 in 3.0 mi Variable 3.5 mph - 0.24 in Rain Rain
4:26 AM 53.6 °F 53.6 °F 100% 29.96 in 2.0 mi South 4.6 mph - 0.13 in Rain Heavy Rain
4:32 AM 53.6 °F 53.6 °F 100% 29.96 in 3.0 mi South 5.8 mph - 0.16 in Rain Rain
4:52 AM 53.6 °F 51.8 °F 94% 29.96 in 3.0 mi SSE 5.8 mph - 0.22 in Rain Light Rain
4:56 AM 54.0 °F 52.0 °F 93% 29.96 in 3.0 mi South 4.6 mph - 0.23 in Rain Heavy Rain
5:16 AM 53.6 °F 51.8 °F 94% 29.96 in 2.0 mi SSE 5.8 mph - 0.08 in Rain Heavy Rain
5:24 AM 53.6 °F 51.8 °F 94% 29.96 in 3.0 mi SE 4.6 mph - 0.11 in Rain Rain
5:41 AM 53.6 °F 51.8 °F 94% 29.96 in 3.0 mi SE 6.9 mph - 0.16 in Rain Rain
5:56 AM 53.1 °F 52.0 °F 96% 29.96 in 3.0 mi SSE 6.9 mph - 0.18 in Rain Light Rain
6:07 AM 53.6 °F 51.8 °F 94% 29.96 in 3.0 mi SSE 6.9 mph - 0.02 in Rain Rain
6:35 AM 53.6 °F 51.8 °F 94% 29.96 in 3.0 mi SSE 6.9 mph - 0.04 in Rain Light Rain
6:56 AM 53.1 °F 52.0 °F 96% 29.97 in 7.0 mi South 8.1 mph - 0.05 in Rain Light Rain
7:56 AM 53.1 °F 52.0 °F 96% 29.97 in 3.0 mi SSE 6.9 mph - 0.11 in Rain Rain
8:05 AM 51.8 °F 51.8 °F 100% 29.96 in 2.5 mi SSE 6.9 mph - 0.05 in Rain Heavy Rain
8:56 AM 52.0 °F 51.1 °F 97% 29.97 in 2.5 mi SE 4.6 mph - 0.20 in Rain Rain
8:58 AM 51.8 °F 51.8 °F 100% 29.97 in 3.0 mi SE 4.6 mph - 0.00 in Rain Rain
9:16 AM 51.8 °F 51.8 °F 100% 29.97 in 3.0 mi SE 5.8 mph - 0.02 in Rain Light Rain
9:56 AM 52.0 °F 51.1 °F 97% 29.96 in 4.0 mi SE 5.8 mph - 0.05 in Rain Light Rain
10:06 AM 51.8 °F 51.8 °F 100% 29.96 in 2.5 mi SE 6.9 mph - 0.01 in Rain Light Rain
10:07 AM 51.8 °F 51.8 °F 100% 29.96 in 2.5 mi SE 5.8 mph - 0.01 in Rain Light Rain
10:22 AM 51.8 °F 51.8 °F 100% 29.96 in 4.0 mi SE 5.8 mph - 0.05 in Rain Light Rain
10:56 AM 53.1 °F 52.0 °F 96% 29.96 in 3.0 mi SE 4.6 mph - 0.07 in Rain Light Rain
11:56 AM 54.0 °F 53.1 °F 97% 29.93 in 7.0 mi SSE 5.8 mph - 0.01 in   Overcast
12:56 PM 54.0 °F 53.1 °F 97% 29.90 in 5.0 mi SSE 5.8 mph - 0.00 in Rain Light Rain
1:03 PM 55.4 °F 53.6 °F 94% 29.90 in 3.0 mi South 6.9 mph - 0.01 in Rain Light Rain
1:34 PM 55.4 °F 53.6 °F 94% 29.89 in 4.0 mi South 5.8 mph - 0.04 in Rain Light Rain
1:52 PM 55.4 °F 53.6 °F 94% 29.88 in 3.0 mi South 4.6 mph - 0.05 in Rain Light Rain
1:54 PM 55.4 °F 53.6 °F 94% 29.88 in 2.0 mi South 5.8 mph - 0.05 in Rain Light Rain
1:56 PM 55.0 °F 54.0 °F 96% 29.88 in 2.0 mi South 5.8 mph - 0.06 in Rain Rain
2:12 PM 55.4 °F 53.6 °F 94% 29.87 in 2.0 mi South 4.6 mph - 0.02 in Rain Light Rain
2:18 PM 55.4 °F 53.6 °F 94% 29.87 in 1.8 mi South 4.6 mph - 0.02 in Rain Rain
2:32 PM 55.4 °F 53.6 °F 94% 29.87 in 2.0 mi South 4.6 mph - 0.05 in Rain Light Rain
2:56 PM 55.0 °F 54.0 °F 96% 29.86 in 1.8 mi South 5.8 mph - 0.07 in Rain Rain
3:07 PM 55.4 °F 53.6 °F 94% 29.86 in 2.5 mi South 5.8 mph - 0.02 in Rain Light Rain
3:26 PM 55.4 °F 55.4 °F 100% 29.86 in 4.0 mi South 5.8 mph - 0.05 in Rain Light Rain
3:41 PM 55.4 °F 55.4 °F 100% 29.86 in 2.5 mi South 4.6 mph - 0.07 in Rain Light Rain
3:43 PM 55.4 °F 55.4 °F 100% 29.86 in 3.0 mi South 3.5 mph - 0.07 in Rain Light Rain
3:56 PM 55.9 °F 55.0 °F 97% 29.86 in 7.0 mi South 5.8 mph - 0.08 in Rain Light Rain
4:32 PM 57.2 °F 55.4 °F 94% 29.86 in 2.0 mi South 6.9 mph - 0.01 in Rain Light Rain
4:40 PM 57.2 °F 55.4 °F 94% 29.86 in 1.5 mi South 4.6 mph - 0.03 in Rain Rain
4:54 PM 55.4 °F 55.4 °F 100% 29.86 in 1.5 mi South 5.8 mph - 0.07 in Rain Rain
4:56 PM 55.9 °F 55.0 °F 97% 29.86 in 1.5 mi South 4.6 mph - 0.08 in Rain Rain
5:07 PM 55.4 °F 55.4 °F 100% 29.86 in 2.0 mi South 5.8 mph - 0.00 in Rain Light Rain
5:21 PM 57.2 °F 55.4 °F 94% 29.86 in 3.0 mi South 4.6 mph - 0.04 in Rain Light Rain
5:36 PM 57.2 °F 55.4 °F 94% 29.86 in 2.0 mi SSW 3.5 mph - 0.07 in Rain Rain
5:45 PM 57.2 °F 55.4 °F 94% 29.86 in 5.0 mi SSW 3.5 mph - 0.08 in Rain Light Rain
5:56 PM 55.9 °F 55.9 °F 100% 29.86 in 5.0 mi SSE 3.5 mph - 0.08 in Rain Light Rain
6:08 PM 57.2 °F 55.4 °F 94% 29.86 in 6.0 mi SSE 4.6 mph - 0.00 in   Overcast
6:19 PM 57.2 °F 55.4 °F 94% 29.86 in 7.0 mi SSE 3.5 mph - 0.00 in   Overcast
6:56 PM 57.0 °F 55.9 °F 96% 29.87 in 9.0 mi SSW 3.5 mph - 0.00 in Rain Light Rain
7:24 PM 57.2 °F 55.4 °F 94% 29.86 in 9.0 mi South 5.8 mph - 0.00 in   Overcast
7:56 PM 57.9 °F 55.0 °F 90% 29.86 in 10.0 mi SSW 4.6 mph - 0.00 in   Overcast
8:09 PM 57.2 °F 55.4 °F 94% 29.87 in 10.0 mi SSW 5.8 mph - N/A   Overcast
8:45 PM 57.2 °F 55.4 °F 94% 29.87 in 10.0 mi SW 9.2 mph - N/A   Overcast
8:56 PM 57.9 °F 55.9 °F 93% 29.87 in 10.0 mi SSW 9.2 mph - N/A   Overcast
9:13 PM 57.2 °F 55.4 °F 94% 29.88 in 10.0 mi SSW 5.8 mph - N/A   Overcast
9:56 PM 57.9 °F 55.9 °F 93% 29.87 in 8.0 mi SSW 8.1 mph - N/A   Overcast
10:56 PM 57.9 °F 55.9 °F 93% 29.88 in 6.0 mi SW 5.8 mph - 0.00 in Rain Light Rain
11:07 PM 57.2 °F 55.4 °F 94% 29.87 in 4.0 mi SW 4.6 mph - 0.02 in Rain Light Rain
11:40 PM 57.2 °F 57.2 °F 100% 29.87 in 4.0 mi South 4.6 mph - 0.02 in Rain Rain
11:56 PM 57.9 °F 57.0 °F 97% 29.87 in 4.0 mi SSW 4.6 mph - 0.05 in Rain Light Rain